Terminal Aerodrome Forecast
Issued by NWS Wilmington, NC

Home | Current Version | Previous Version | Text Only | Print | Product List | Glossary On
Versions: 1 2 3 4 5 6 7 8 9 10 11 12 13 14 15 16 17 18 19 20 21
000
FTUS42 KILM 011700
TAFILM
TAF
KILM 011726Z 0118/0218 VRB06KT P6SM SKC
      TEMPO 0210/0212 4SM BR
     FM021400 24004KT P6SM FEW030=

USA.gov is the U.S. government's official web portal to all federal, state and local government web resources and services.